User: anonymous   Login
Location: Unspecified
(0.0000°N, 0.0000°E)
Time: 07:07:42
(UTC+01:00)
Language:

CZ-4 R/B - Orbit

View from above orbital plane
View from above orbital plane
View from above satellite
View from above satellite

Ground track
Ground track

The orbit data is extracted from the following two-line orbital elements,

1 28059U 03049C   14354.20098253  .00000210  00000-0  62957-4 0  2401
2 28059 098.6785 199.3238 0051345 137.0900 000.5002 14.52244043591586
Epoch (UTC): 20 December 2014 04:49:24
Eccentricity: 0.0051345
inclination: 98.6785°
perigee height: 682 km
apogee height: 755 km
right ascension of ascending node: 199.3238°
argument of perigee: 137.0900°
revolutions per day: 14.52244043
mean anomaly at epoch: 0.5002°
orbit number at epoch: 59158

The dashed part of the orbit path shows where the satellite is in the earth's shadow,  

DLR